Weather History for Cozumel, Mexico

Change the Weather History Date:

Monday, December 12, 2011

  Actual Average Record
Temperature  
Mean Temperature 71 °F -  
Max Temperature 78 °F 81 °F 87 °F (1997)
Min Temperature 64 °F 71 °F 59 °F (2010)
Cooling Degree Days 6    
Growing Degree Days 21 (Base 50)    
Moisture  
Dew Point 68 °F    
Average Humidity 85    
Maximum Humidity 94    
Minimum Humidity 74    
Precipitation  
Precipitation 0.00 in - - ()
Sea Level Pressure  
Sea Level Pressure 30.05 in    
Wind  
Wind Speed 5 mph ()    
Max Wind Speed 16 mph    
Max Gust Speed -    
Visibility 7.1 miles    
Events      
Averages and records for this station are not official NWS values.
T = Trace of Precipitation, MM = Missing Value Source: Averaged Metar Reports

Daily Weather History Graph

Daily Weather History Graph

Search for Another Location

Airport:

Trip Planner

Search our weather history database for the weather conditions in past years. The results will help you decide how hot, cold, wet, or windy it might be!

Date:

Astronomy

Dec. 12, 2011 Rise Set
Actual Time 6:14 AM CST 5:08 PM CST
Civil Twilight 5:50 AM CST 5:32 PM CST
Nautical Twilight 5:22 AM CST 6:00 PM CST
Astronomical Twilight 4:55 AM CST 6:27 PM CST
Moon 7:12 PM CST (12/12) 7:49 AM CST (12/12)
Length of Visible Light 11h 42m
Length of Day
10h 54m
Waning Gibbous, 95% of the Moon is Illuminated
Dec 12
Waning Gibbous
Dec 17
Last Quarter
Dec 24
New
Jan 1
First Quarter
Jan 9
Full

Hourly Weather History & Observations

Time (CST) Temp. Dew Point Humidity Pressure Visibility Wind Dir Wind Speed Gust Speed Precip Events Conditions
12:41 AM 69.8 °F 68.0 °F 94% 30.02 in 7.0 mi East 4.6 mph - N/A   Scattered Clouds
1:47 AM 69.8 °F 68.0 °F 94% 30.01 in 7.0 mi Calm Calm - N/A   Partly Cloudy
2:46 AM 68.0 °F 66.2 °F 94% 30.03 in 7.0 mi Calm Calm - N/A   Scattered Clouds
3:40 AM 68.0 °F 66.2 °F 94% 30.00 in 7.0 mi Calm Calm - N/A   Scattered Clouds
4:50 AM 68.0 °F 66.2 °F 94% 30.01 in 7.0 mi Calm Calm - N/A   Partly Cloudy
5:51 AM 66.2 °F 64.4 °F 94% 30.00 in 7.0 mi Calm Calm - N/A   Partly Cloudy
6:40 AM 64.4 °F 62.6 °F 94% 30.04 in 7.0 mi Calm Calm - N/A   Scattered Clouds
7:40 AM 71.6 °F 69.8 °F 94% 30.06 in 7.0 mi ENE 3.5 mph - N/A   Scattered Clouds
8:42 AM 77.0 °F 71.6 °F 83% 30.11 in 7.0 mi ENE 5.8 mph - N/A   Scattered Clouds
9:40 AM 78.8 °F 71.6 °F 78% 30.08 in 7.0 mi ENE 6.9 mph - N/A   Mostly Cloudy
10:40 AM 78.8 °F 71.6 °F 78% 30.08 in 7.0 mi ENE 10.4 mph - N/A   Scattered Clouds
11:40 AM 78.8 °F 71.6 °F 78% 30.04 in 7.0 mi ENE 16.1 mph - N/A   Scattered Clouds
12:40 PM 78.8 °F 69.8 °F 74% 30.04 in 7.0 mi ENE 15.0 mph - N/A   Scattered Clouds
1:40 PM 78.8 °F 69.8 °F 74% 30.03 in 7.0 mi East 13.8 mph - N/A   Mostly Cloudy
2:41 PM 75.2 °F 69.8 °F 83% 30.02 in 8.0 mi NE 13.8 mph - N/A   Scattered Clouds
3:48 PM 77.0 °F 69.8 °F 78% 30.02 in 8.0 mi ENE 11.5 mph - N/A   Scattered Clouds
4:50 PM 73.4 °F 68.0 °F 83% 30.04 in 8.0 mi NE 6.9 mph - N/A   Scattered Clouds
5:42 PM 71.6 °F 68.0 °F 88% 30.02 in 7.0 mi NE 5.8 mph - N/A   Scattered Clouds
6:41 PM 73.4 °F 68.0 °F 83% 30.07 in 7.0 mi ENE 5.8 mph - N/A   Scattered Clouds
7:40 PM 71.6 °F 66.2 °F 83% 30.09 in 7.0 mi ENE 6.9 mph - N/A   Scattered Clouds
8:48 PM 73.4 °F 68.0 °F 83% 30.13 in 7.0 mi NE 5.8 mph - N/A   Scattered Clouds
9:45 PM 73.4 °F 68.0 °F 83% 30.11 in 7.0 mi NE 5.8 mph - N/A   Scattered Clouds
10:51 PM 73.4 °F 68.0 °F 83% 30.10 in 7.0 mi ENE 8.1 mph - N/A   Partly Cloudy
11:40 PM 73.4 °F 68.0 °F 83% 30.06 in 7.0 mi ENE 6.9 mph - N/A   Partly Cloudy